Time,TemperatureF,DewpointF,PressureIn,WindDirection,WindDirectionDegrees,WindSpeedMPH,WindSpeedGustMPH,Humidity,HourlyPrecipIn,Conditions,Clouds,dailyrainin,SoftwareType,DateUTC
2013-05-23 00:03:00,66.0,64.0,-100.00,NW,305,0.0,0.0,94,0.00,,,-99.99,,2013-05-23 04:03:00,
2013-05-23 00:12:00,65.0,64.0,-100.00,NW,305,0.0,0.0,94,0.00,,,-99.99,,2013-05-23 04:12:00,
2013-05-23 00:22:00,65.0,64.0,-100.00,NW,305,0.0,0.0,94,0.00,,,-99.99,,2013-05-23 04:22:00,
2013-05-23 00:33:00,65.0,63.0,-100.00,NW,315,0.0,0.0,94,0.00,,,-99.99,,2013-05-23 04:33:00,
2013-05-23 00:43:00,65.0,63.0,-100.00,NW,315,0.0,0.0,93,0.00,,,-99.99,,2013-05-23 04:43:00,
2013-05-23 00:52:00,65.0,63.0,-100.00,NW,315,0.0,0.0,94,0.00,,,-99.99,,2013-05-23 04:52:00,
2013-05-23 01:02:00,65.0,63.0,-100.00,NNW,340,0.0,0.0,94,0.00,,,-99.99,,2013-05-23 05:02:00,
2013-05-23 01:11:00,65.0,63.0,-100.00,NNW,335,0.0,0.0,93,0.00,,,-99.99,,2013-05-23 05:11:00,
2013-05-23 01:22:00,65.0,63.0,-100.00,NW,320,0.0,0.0,92,0.00,,,-99.99,,2013-05-23 05:22:00,
2013-05-23 01:32:00,65.0,63.0,-100.00,NNW,335,0.0,0.0,91,0.00,,,-99.99,,2013-05-23 05:32:00,
2013-05-23 01:42:00,65.0,63.0,-100.00,North,355,0.0,0.0,91,0.00,,,-99.99,,2013-05-23 05:42:00,
2013-05-23 01:52:00,65.0,62.0,-100.00,NNW,335,0.0,0.0,91,0.00,,,-99.99,,2013-05-23 05:52:00,
2013-05-23 02:02:00,65.0,62.0,-100.00,NNW,335,0.0,0.0,91,0.00,,,-99.99,,2013-05-23 06:02:00,
2013-05-23 02:12:00,65.0,63.0,-100.00,NW,320,0.0,0.0,92,0.00,,,-99.99,,2013-05-23 06:12:00,
2013-05-23 02:21:00,65.0,63.0,-100.00,NNW,345,0.0,0.0,92,0.00,,,-99.99,,2013-05-23 06:21:00,
2013-05-23 02:32:00,65.0,63.0,-100.00,NW,325,0.0,0.0,92,0.00,,,-99.99,,2013-05-23 06:32:00,
2013-05-23 02:42:00,65.0,63.0,-100.00,North,0,0.0,0.0,93,0.00,,,-99.99,,2013-05-23 06:42:00,
2013-05-23 02:52:00,65.0,63.0,-100.00,North,0,0.0,0.0,93,0.00,,,-99.99,,2013-05-23 06:52:00,
2013-05-23 03:02:00,65.0,63.0,-100.00,North,0,0.0,0.0,94,0.00,,,-99.99,,2013-05-23 07:02:00,
2013-05-23 03:11:00,65.0,63.0,-100.00,North,10,0.0,0.0,94,0.00,,,-99.99,,2013-05-23 07:11:00,
2013-05-23 03:21:00,65.0,63.0,-100.00,North,5,0.0,0.0,94,0.00,,,-99.99,,2013-05-23 07:21:00,
2013-05-23 03:32:00,65.0,63.0,-100.00,North,350,0.0,0.0,93,0.00,,,-99.99,,2013-05-23 07:32:00,
2013-05-23 03:42:00,65.0,63.0,-100.00,North,0,0.0,0.0,93,0.00,,,-99.99,,2013-05-23 07:42:00,
2013-05-23 03:59:00,65.0,63.0,-100.00,North,10,0.0,0.0,93,0.00,,,-99.99,,2013-05-23 07:59:00,
2013-05-23 04:11:00,65.0,63.0,-100.00,North,0,0.0,0.0,93,0.00,,,-99.99,,2013-05-23 08:11:00,
2013-05-23 04:22:00,65.0,63.0,-100.00,North,10,0.0,0.0,93,0.00,,,-99.99,,2013-05-23 08:22:00,
2013-05-23 04:32:00,65.0,63.0,-100.00,North,0,0.0,0.0,93,0.00,,,-99.99,,2013-05-23 08:32:00,
2013-05-23 04:42:00,65.0,63.0,-100.00,NNW,340,0.0,0.0,93,0.00,,,-99.99,,2013-05-23 08:42:00,
2013-05-23 04:51:00,65.0,63.0,-100.00,NW,315,0.0,0.0,94,0.00,,,-99.99,,2013-05-23 08:51:00,
2013-05-23 05:02:00,64.0,63.0,-100.00,NW,310,0.0,0.0,95,0.00,,,-99.99,,2013-05-23 09:02:00,
2013-05-23 05:11:00,64.0,63.0,-100.00,North,350,0.0,0.0,95,0.00,,,-99.99,,2013-05-23 09:11:00,
2013-05-23 05:22:00,64.0,63.0,-100.00,North,10,0.0,0.0,95,0.00,,,-99.99,,2013-05-23 09:22:00,
2013-05-23 05:33:00,64.0,63.0,-100.00,North,350,0.0,0.0,95,0.00,,,-99.99,,2013-05-23 09:33:00,
2013-05-23 05:42:00,64.0,63.0,-100.00,North,355,0.0,0.0,95,0.00,,,-99.99,,2013-05-23 09:42:00,
2013-05-23 05:53:00,64.0,62.0,-100.00,North,0,0.0,0.0,95,0.00,,,-99.99,,2013-05-23 09:53:00,
2013-05-23 06:03:00,64.0,62.0,-100.00,NNW,335,0.0,0.0,95,0.00,,,-99.99,,2013-05-23 10:03:00,
2013-05-23 06:12:00,64.0,62.0,-100.00,North,350,0.0,0.0,95,0.00,,,-99.99,,2013-05-23 10:12:00,
2013-05-23 06:22:00,63.0,62.0,-100.00,NNW,340,0.0,0.0,95,0.00,,,-99.99,,2013-05-23 10:22:00,
2013-05-23 06:32:00,63.0,62.0,-100.00,North,0,0.0,0.0,95,0.00,,,-99.99,,2013-05-23 10:32:00,
2013-05-23 06:42:00,63.0,62.0,-100.00,North,0,0.0,0.0,95,0.00,,,-99.99,,2013-05-23 10:42:00,
2013-05-23 06:52:00,63.0,62.0,-100.00,North,0,0.0,0.0,93,0.00,,,-99.99,,2013-05-23 10:52:00,
2013-05-23 07:02:00,64.0,61.0,-100.00,North,0,0.0,0.0,92,0.00,,,-99.99,,2013-05-23 11:02:00,
2013-05-23 07:11:00,64.0,61.0,-100.00,NW,325,0.0,0.0,92,0.00,,,-99.99,,2013-05-23 11:11:00,
2013-05-23 07:22:00,64.0,61.0,-100.00,NNW,345,0.0,0.0,92,0.00,,,-99.99,,2013-05-23 11:22:00,
2013-05-23 07:32:00,64.0,62.0,-100.00,NNW,340,0.0,0.0,92,0.00,,,-99.99,,2013-05-23 11:32:00,
2013-05-23 07:42:00,64.0,62.0,-100.00,NW,320,0.0,0.0,93,0.00,,,-99.99,,2013-05-23 11:42:00,
2013-05-23 07:52:00,64.0,62.0,-100.00,NW,325,0.0,0.0,93,0.00,,,-99.99,,2013-05-23 11:52:00,
2013-05-23 08:01:00,64.0,63.0,-100.00,NNW,330,0.0,0.0,94,0.00,,,-99.99,,2013-05-23 12:01:00,
2013-05-23 08:12:00,64.0,63.0,-100.00,North,350,0.0,0.0,95,0.00,,,-99.99,,2013-05-23 12:12:00,
2013-05-23 08:21:00,65.0,63.0,-100.00,North,0,0.0,0.0,94,0.00,,,-99.99,,2013-05-23 12:21:00,
2013-05-23 08:32:00,65.0,63.0,-100.00,North,0,0.0,0.0,93,0.00,,,-99.99,,2013-05-23 12:32:00,
2013-05-23 08:42:00,65.0,63.0,-100.00,North,0,0.0,0.0,93,0.00,,,-99.99,,2013-05-23 12:42:00,
2013-05-23 08:52:00,65.0,63.0,-100.00,NNW,340,0.0,0.0,91,0.00,,,-99.99,,2013-05-23 12:52:00,
2013-05-23 09:01:00,65.0,63.0,-100.00,NNW,345,0.0,0.0,91,0.00,,,-99.99,,2013-05-23 13:01:00,
2013-05-23 09:11:00,66.0,62.0,-100.00,North,0,0.0,0.0,88,0.00,,,-99.99,,2013-05-23 13:11:00,
2013-05-23 09:22:00,65.0,62.0,-100.00,North,0,0.0,0.0,88,0.00,,,-99.99,,2013-05-23 13:22:00,
2013-05-23 09:32:00,66.0,62.0,-100.00,North,0,0.0,0.0,88,0.00,,,-99.99,,2013-05-23 13:32:00,
2013-05-23 09:42:00,66.0,62.0,-100.00,NNW,340,0.0,0.0,86,0.00,,,-99.99,,2013-05-23 13:42:00,
2013-05-23 09:52:00,66.0,62.0,-100.00,North,350,0.0,0.0,87,0.00,,,-99.99,,2013-05-23 13:52:00,
2013-05-23 10:02:00,66.0,62.0,-100.00,North,0,0.0,0.0,87,0.00,,,-99.99,,2013-05-23 14:02:00,
2013-05-23 10:11:00,65.0,62.0,-100.00,North,350,0.0,0.0,88,0.00,,,-99.99,,2013-05-23 14:11:00,
2013-05-23 10:21:00,66.0,62.0,-100.00,North,10,0.0,0.0,88,0.00,,,-99.99,,2013-05-23 14:21:00,
2013-05-23 10:32:00,66.0,62.0,-100.00,North,350,0.0,0.0,87,0.00,,,-99.99,,2013-05-23 14:32:00,
2013-05-23 10:42:00,66.0,61.0,-100.00,North,0,0.0,0.0,82,0.00,,,-99.99,,2013-05-23 14:42:00,
2013-05-23 10:52:00,67.0,61.0,-100.00,North,350,0.0,0.0,80,0.00,,,-99.99,,2013-05-23 14:52:00,
2013-05-23 11:01:00,67.0,61.0,-100.00,NW,315,0.0,0.0,80,0.00,,,-99.99,,2013-05-23 15:01:00,
2013-05-23 11:11:00,69.0,61.0,-100.00,North,350,0.0,0.0,76,0.00,,,-99.99,,2013-05-23 15:11:00,
2013-05-23 11:21:00,68.0,60.0,-100.00,North,5,0.0,0.0,75,0.00,,,-99.99,,2013-05-23 15:21:00,
2013-05-23 11:33:00,69.0,60.0,-100.00,North,0,0.0,0.0,74,0.00,,,-99.99,,2013-05-23 15:33:00,
2013-05-23 11:42:00,69.0,61.0,-100.00,North,10,0.0,0.0,73,0.00,,,-99.99,,2013-05-23 15:42:00,
2013-05-23 11:53:00,71.0,60.0,-100.00,NNW,345,0.0,0.0,70,0.00,,,-99.99,,2013-05-23 15:53:00,
2013-05-23 12:03:00,70.0,59.0,-100.00,NNW,340,0.0,0.0,68,0.00,,,-99.99,,2013-05-23 16:03:00,
2013-05-23 12:12:00,71.0,60.0,-100.00,NW,325,0.0,0.0,68,0.00,,,-99.99,,2013-05-23 16:12:00,
2013-05-23 12:23:00,71.0,60.0,-100.00,North,0,0.0,0.0,66,0.00,,,-99.99,,2013-05-23 16:23:00,
2013-05-23 12:34:00,72.0,59.0,-100.00,NNE,20,0.0,0.0,63,0.00,,,-99.99,,2013-05-23 16:34:00,
2013-05-23 12:42:00,71.0,57.0,-100.00,NNE,20,0.0,0.0,61,0.00,,,-99.99,,2013-05-23 16:42:00,
2013-05-23 12:52:00,74.0,59.0,-100.00,North,10,0.0,0.0,60,0.00,,,-99.99,,2013-05-23 16:52:00,
2013-05-23 13:03:00,71.0,57.0,-100.00,NNE,25,0.0,0.0,60,0.00,,,-99.99,,2013-05-23 17:03:00,
2013-05-23 13:11:00,71.0,57.0,-100.00,NNE,25,0.0,0.0,61,0.00,,,-99.99,,2013-05-23 17:11:00,
2013-05-23 13:23:00,73.0,58.0,-100.00,NNE,15,0.0,0.0,60,0.00,,,-99.99,,2013-05-23 17:23:00,
2013-05-23 13:33:00,73.0,57.0,-100.00,NNE,30,0.0,0.0,58,0.00,,,-99.99,,2013-05-23 17:33:00,
2013-05-23 13:43:00,71.0,56.0,-100.00,NNE,30,0.0,0.0,59,0.00,,,-99.99,,2013-05-23 17:43:00,
2013-05-23 13:52:00,72.0,57.0,-100.00,North,10,0.0,0.0,59,0.00,,,-99.99,,2013-05-23 17:52:00,
2013-05-23 14:01:00,72.0,57.0,-100.00,NNE,20,0.0,0.0,59,0.00,,,-99.99,,2013-05-23 18:01:00,
2013-05-23 14:11:00,73.0,56.0,-100.00,NNE,30,0.0,0.0,54,0.00,,,-99.99,,2013-05-23 18:11:00,
2013-05-23 14:22:00,75.0,56.0,-100.00,NE,40,0.0,0.0,51,0.00,,,-99.99,,2013-05-23 18:22:00,
2013-05-23 14:32:00,75.0,56.0,-100.00,North,0,0.0,0.0,51,0.00,,,-99.99,,2013-05-23 18:32:00,
2013-05-23 14:42:00,76.0,56.0,-100.00,North,10,0.0,0.0,49,0.00,,,-99.99,,2013-05-23 18:42:00,
2013-05-23 14:52:00,73.0,55.0,-100.00,NNE,25,0.0,0.0,53,0.00,,,-99.99,,2013-05-23 18:52:00,
2013-05-23 15:01:00,75.0,55.0,-100.00,NNE,20,0.0,0.0,50,0.00,,,-99.99,,2013-05-23 19:01:00,
2013-05-23 15:11:00,75.0,55.0,-100.00,NNE,20,0.0,0.0,50,0.00,,,-99.99,,2013-05-23 19:11:00,
2013-05-23 15:21:00,74.0,55.0,-100.00,NNE,15,0.0,0.0,51,0.00,,,-99.99,,2013-05-23 19:21:00,
2013-05-23 15:32:00,75.0,55.0,-100.00,NNE,20,0.0,0.0,50,0.00,,,-99.99,,2013-05-23 19:32:00,
2013-05-23 15:42:00,72.0,55.0,-100.00,North,0,0.0,0.0,53,0.00,,,-99.99,,2013-05-23 19:42:00,
2013-05-23 15:52:00,73.0,53.0,-100.00,NE,40,0.0,0.0,50,0.00,,,-99.99,,2013-05-23 19:52:00,
2013-05-23 16:02:00,74.0,54.0,-100.00,NNE,20,0.0,0.0,51,0.00,,,-99.99,,2013-05-23 20:02:00,
2013-05-23 16:11:00,72.0,54.0,-100.00,NNE,30,0.0,0.0,53,0.00,,,-99.99,,2013-05-23 20:11:00,
2013-05-23 16:21:00,71.0,54.0,-100.00,ENE,65,0.0,0.0,54,0.00,,,-99.99,,2013-05-23 20:21:00,
2013-05-23 16:32:00,72.0,54.0,-100.00,ENE,65,0.0,0.0,52,0.00,,,-99.99,,2013-05-23 20:32:00,
2013-05-23 16:42:00,72.0,54.0,-100.00,NNE,30,0.0,0.0,52,0.00,,,-99.99,,2013-05-23 20:42:00,
2013-05-23 16:52:00,72.0,55.0,-100.00,ENE,75,0.0,0.0,55,0.00,,,-99.99,,2013-05-23 20:52:00,
2013-05-23 17:01:00,71.0,55.0,-100.00,ENE,75,0.0,0.0,56,0.00,,,-99.99,,2013-05-23 21:01:00,
2013-05-23 17:11:00,71.0,54.0,-100.00,NNE,30,0.0,0.0,56,0.00,,,-99.99,,2013-05-23 21:11:00,
2013-05-23 17:22:00,70.0,53.0,-100.00,NNE,30,0.0,0.0,56,0.00,,,-99.99,,2013-05-23 21:22:00,
2013-05-23 17:32:00,70.0,53.0,-100.00,NE,50,0.0,0.0,55,0.00,,,-99.99,,2013-05-23 21:32:00,
2013-05-23 17:43:00,69.0,53.0,-100.00,NE,45,0.0,0.0,57,0.00,,,-99.99,,2013-05-23 21:43:00,
2013-05-23 17:53:00,69.0,54.0,-100.00,ENE,70,0.0,0.0,59,0.00,,,-99.99,,2013-05-23 21:53:00,
2013-05-23 18:03:00,68.0,55.0,-100.00,ENE,75,0.0,0.0,63,0.00,,,-99.99,,2013-05-23 22:03:00,
2013-05-23 18:12:00,64.0,55.0,-100.00,East,80,0.0,0.0,72,0.00,,,-99.99,,2013-05-23 22:12:00,
2013-05-23 18:22:00,64.0,56.0,-100.00,ENE,60,0.0,0.0,77,0.00,,,-99.99,,2013-05-23 22:22:00,
2013-05-23 18:33:00,64.0,56.0,-100.00,ENE,65,0.0,0.0,76,0.00,,,-99.99,,2013-05-23 22:33:00,
2013-05-23 18:42:00,64.0,55.0,-100.00,ENE,65,0.0,0.0,73,0.00,,,-99.99,,2013-05-23 22:42:00,
2013-05-23 18:52:00,63.0,56.0,-100.00,NE,45,0.0,0.0,76,0.00,,,-99.99,,2013-05-23 22:52:00,
2013-05-23 19:02:00,64.0,57.0,-100.00,NE,55,0.0,0.0,79,0.00,,,-99.99,,2013-05-23 23:02:00,
2013-05-23 19:11:00,63.0,57.0,-100.00,NE,35,0.0,0.0,81,0.00,,,-99.99,,2013-05-23 23:11:00,
2013-05-23 19:21:00,63.0,58.0,-100.00,NNE,30,0.0,0.0,82,0.00,,,-99.99,,2013-05-23 23:21:00,
2013-05-23 19:32:00,63.0,58.0,-100.00,NE,50,0.0,0.0,84,0.00,,,-99.99,,2013-05-23 23:32:00,
2013-05-23 19:42:00,62.0,58.0,-100.00,ESE,120,0.0,0.0,87,3.39,,,-99.99,,2013-05-23 23:42:00,
2013-05-23 19:52:00,59.0,55.0,-100.00,ESE,105,0.0,0.0,87,0.00,,,-99.99,,2013-05-23 23:52:00,
2013-05-23 20:01:00,58.0,56.0,-100.00,ESE,105,0.0,0.0,90,0.00,,,-99.99,,2013-05-24 00:01:00,
2013-05-23 20:12:00,58.0,55.0,-100.00,ESE,115,0.0,0.0,90,0.00,,,-99.99,,2013-05-24 00:12:00,
2013-05-23 20:21:00,57.0,54.0,-100.00,ESE,120,0.0,0.0,88,0.00,,,-99.99,,2013-05-24 00:21:00,
2013-05-23 20:32:00,56.0,52.0,-100.00,SE,130,0.0,0.0,86,0.00,,,-99.99,,2013-05-24 00:32:00,
2013-05-23 20:42:00,56.0,52.0,-100.00,SE,130,0.0,0.0,87,0.00,,,-99.99,,2013-05-24 00:42:00,
2013-05-23 20:52:00,54.0,51.0,-100.00,SE,125,0.0,0.0,88,0.00,,,-99.99,,2013-05-24 00:52:00,
2013-05-23 21:01:00,53.0,49.0,-100.00,ESE,120,0.0,0.0,84,0.00,,,-99.99,,2013-05-24 01:01:00,
2013-05-23 21:12:00,53.0,47.0,-100.00,SE,125,0.0,0.0,82,0.00,,,-99.99,,2013-05-24 01:12:00,
2013-05-23 21:22:00,52.0,47.0,-100.00,ESE,115,0.0,0.0,82,0.00,,,-99.99,,2013-05-24 01:22:00,
2013-05-23 21:32:00,52.0,47.0,-100.00,SE,130,0.0,0.0,82,0.00,,,-99.99,,2013-05-24 01:32:00,
2013-05-23 21:42:00,52.0,46.0,-100.00,SE,145,0.0,0.0,82,0.00,,,-99.99,,2013-05-24 01:42:00,
2013-05-23 21:52:00,51.0,46.0,-100.00,SE,125,0.0,0.0,81,0.00,,,-99.99,,2013-05-24 01:52:00,
2013-05-23 22:02:00,51.0,46.0,-100.00,ESE,120,0.0,0.0,81,0.00,,,-99.99,,2013-05-24 02:02:00,
2013-05-23 22:12:00,51.0,46.0,-100.00,ESE,110,0.0,0.0,81,0.00,,,-99.99,,2013-05-24 02:12:00,
2013-05-23 22:21:00,51.0,45.0,-100.00,ESE,115,0.0,0.0,79,0.00,,,-99.99,,2013-05-24 02:21:00,
2013-05-23 22:32:00,51.0,44.0,-100.00,SE,135,0.0,0.0,78,0.00,,,-99.99,,2013-05-24 02:32:00,
2013-05-23 22:42:00,50.0,44.0,-100.00,ESE,115,0.0,0.0,79,0.00,,,-99.99,,2013-05-24 02:42:00,
2013-05-23 22:52:00,50.0,44.0,-100.00,ESE,115,0.0,0.0,80,0.00,,,-99.99,,2013-05-24 02:52:00,
2013-05-23 23:02:00,50.0,44.0,-100.00,SE,135,0.0,0.0,79,0.00,,,-99.99,,2013-05-24 03:02:00,
2013-05-23 23:11:00,49.0,44.0,-100.00,ESE,110,0.0,0.0,80,0.00,,,-99.99,,2013-05-24 03:11:00,
2013-05-23 23:22:00,49.0,44.0,-100.00,ESE,110,0.0,0.0,80,0.00,,,-99.99,,2013-05-24 03:22:00,
2013-05-23 23:33:00,49.0,44.0,-100.00,ESE,110,0.0,0.0,79,0.00,,,-99.99,,2013-05-24 03:33:00,
2013-05-23 23:42:00,49.0,44.0,-100.00,SE,125,0.0,0.0,80,0.00,,,-99.99,,2013-05-24 03:42:00,
2013-05-23 23:53:00,49.0,43.0,-100.00,ESE,115,0.0,0.0,80,0.00,,,-99.99,,2013-05-24 03:53:00,